Time,TemperatureF,DewpointF,PressureIn,WindDirection,WindDirectionDegrees,WindSpeedMPH,WindSpeedGustMPH,Humidity,HourlyPrecipIn,Conditions,Clouds,dailyrainin,SoftwareType,DateUTC
2013-03-02 00:00:00,33.7,24.7,29.68,NE,34,2.6,3.6,69,0.00,,,0.00,WSDL version 420,2013-03-02 05:00:00,
2013-03-02 00:03:00,33.8,24.7,29.68,SW,214,0.0,3.6,69,0.00,,,0.00,WSDL version 420,2013-03-02 05:03:00,
2013-03-02 00:05:00,33.8,24.7,29.68,South,188,0.7,3.6,69,0.00,,,0.00,WSDL version 420,2013-03-02 05:05:00,
2013-03-02 00:08:00,33.7,25.0,29.68,SE,135,0.7,3.6,71,0.00,,,0.00,WSDL version 420,2013-03-02 05:08:00,
2013-03-02 00:14:00,33.6,25.0,29.68,SSE,158,0.0,2.2,71,0.00,,,0.00,WSDL version 420,2013-03-02 05:14:00,
2013-03-02 00:20:00,33.6,24.9,29.68,WSW,248,0.0,2.5,70,0.00,,,0.00,WSDL version 420,2013-03-02 05:20:00,
2013-03-02 00:26:00,33.5,24.9,29.68,NE,38,0.8,2.5,70,0.00,,,0.00,WSDL version 420,2013-03-02 05:26:00,
2013-03-02 00:32:00,33.4,24.7,29.68,NE,56,0.0,2.5,70,0.00,,,0.00,WSDL version 420,2013-03-02 05:32:00,
2013-03-02 00:38:00,33.4,24.1,29.68,NW,323,3.0,3.1,68,0.00,,,0.00,WSDL version 420,2013-03-02 05:38:00,
2013-03-02 00:44:00,33.4,24.3,29.68,South,180,0.0,3.1,69,0.00,,,0.00,WSDL version 420,2013-03-02 05:44:00,
2013-03-02 00:50:00,33.4,24.3,29.68,ENE,68,1.0,2.0,69,0.00,,,0.00,WSDL version 420,2013-03-02 05:50:00,
2013-03-02 00:56:00,33.3,24.1,29.68,SW,236,0.8,3.1,69,0.00,,,0.00,WSDL version 420,2013-03-02 05:56:00,
2013-03-02 01:02:00,33.3,24.2,29.68,SSE,158,0.6,2.2,69,0.00,,,0.00,WSDL version 420,2013-03-02 06:02:00,
2013-03-02 01:08:00,33.3,24.0,29.68,East,90,2.7,2.7,68,0.00,,,0.00,WSDL version 420,2013-03-02 06:08:00,
2013-03-02 01:15:00,33.1,23.9,29.68,North,360,0.0,2.7,68,0.00,,,0.00,WSDL version 420,2013-03-02 06:15:00,
2013-03-02 01:21:00,33.1,23.9,29.68,NE,45,0.0,3.4,69,0.00,,,0.00,WSDL version 420,2013-03-02 06:21:00,
2013-03-02 01:27:00,33.1,23.9,29.68,SSE,165,1.0,3.4,69,0.00,,,0.00,WSDL version 420,2013-03-02 06:27:00,
2013-03-02 01:33:00,33.1,23.9,29.68,South,180,0.4,1.3,68,0.00,,,0.00,WSDL version 420,2013-03-02 06:33:00,
2013-03-02 01:39:00,33.0,24.0,29.68,WNW,293,0.0,2.0,69,0.00,,,0.00,WSDL version 420,2013-03-02 06:39:00,
2013-03-02 01:45:00,33.0,23.9,29.68,SE,135,1.3,2.7,69,0.00,,,0.00,WSDL version 420,2013-03-02 06:45:00,
2013-03-02 01:51:00,32.9,23.5,29.68,East,90,1.9,2.9,68,0.00,,,0.00,WSDL version 420,2013-03-02 06:51:00,
2013-03-02 01:57:00,32.9,23.5,29.68,SE,128,1.0,2.9,68,0.00,,,0.00,WSDL version 420,2013-03-02 06:57:00,
2013-03-02 02:03:00,32.8,23.2,29.68,NW,315,1.7,3.6,66,0.00,,,0.00,WSDL version 420,2013-03-02 07:03:00,
2013-03-02 02:09:00,32.8,23.6,29.68,East,98,0.8,3.6,69,0.00,,,0.00,WSDL version 420,2013-03-02 07:09:00,
2013-03-02 02:15:00,32.8,23.9,29.68,North,349,0.0,2.7,69,0.00,,,0.00,WSDL version 420,2013-03-02 07:15:00,
2013-03-02 02:21:00,32.7,23.1,29.68,ENE,60,0.8,4.0,67,0.00,,,0.00,WSDL version 420,2013-03-02 07:21:00,
2013-03-02 02:27:00,32.7,23.1,29.68,ENE,68,0.0,4.0,68,0.00,,,0.00,WSDL version 420,2013-03-02 07:27:00,
2013-03-02 02:33:00,32.7,23.3,29.68,NNW,330,0.3,1.6,68,0.00,,,0.00,WSDL version 420,2013-03-02 07:33:00,
2013-03-02 02:39:00,32.7,23.6,29.68,SE,135,1.9,2.5,69,0.00,,,0.00,WSDL version 420,2013-03-02 07:39:00,
2013-03-02 02:45:00,32.6,23.6,29.68,SSE,158,0.0,2.5,69,0.00,,,0.00,WSDL version 420,2013-03-02 07:45:00,
2013-03-02 02:51:00,32.5,23.5,29.68,East,90,0.0,2.5,69,0.00,,,0.00,WSDL version 420,2013-03-02 07:51:00,
2013-03-02 02:57:00,32.5,23.4,29.68,North,360,2.6,3.4,69,0.00,,,0.00,WSDL version 420,2013-03-02 07:57:00,
2013-03-02 03:03:00,32.5,23.5,29.68,ESE,113,2.1,3.4,69,0.00,,,0.00,WSDL version 420,2013-03-02 08:03:00,
2013-03-02 03:09:00,32.5,23.5,29.68,ENE,60,0.0,2.2,69,0.00,,,0.00,WSDL version 420,2013-03-02 08:09:00,
2013-03-02 03:15:00,32.5,23.5,29.68,SE,124,0.0,0.0,69,0.00,,,0.00,WSDL version 420,2013-03-02 08:15:00,
2013-03-02 03:21:00,32.5,23.5,29.68,ENE,75,0.9,2.9,69,0.00,,,0.00,WSDL version 420,2013-03-02 08:21:00,
2013-03-02 03:27:00,32.5,23.1,29.68,South,173,0.7,2.9,68,0.00,,,0.00,WSDL version 420,2013-03-02 08:27:00,
2013-03-02 03:34:00,32.5,23.4,29.68,SSE,158,0.0,2.0,69,0.00,,,0.00,WSDL version 420,2013-03-02 08:34:00,
2013-03-02 03:40:00,32.4,23.3,29.68,South,180,0.0,2.7,69,0.00,,,0.00,WSDL version 420,2013-03-02 08:40:00,
2013-03-02 03:46:00,32.3,23.3,29.68,SSE,158,0.0,2.7,69,0.00,,,0.00,WSDL version 420,2013-03-02 08:46:00,
2013-03-02 03:52:00,32.2,23.4,29.68,WSW,248,0.0,2.7,70,0.00,,,0.00,WSDL version 420,2013-03-02 08:52:00,
2013-03-02 03:58:00,32.2,23.4,29.68,SE,135,0.0,2.7,70,0.00,,,0.00,WSDL version 420,2013-03-02 08:58:00,
2013-03-02 04:04:00,32.2,23.5,29.68,SE,135,1.2,3.6,70,0.00,,,0.00,WSDL version 420,2013-03-02 09:04:00,
2013-03-02 04:10:00,32.2,23.2,29.68,SW,214,1.7,3.6,69,0.00,,,0.00,WSDL version 420,2013-03-02 09:10:00,
2013-03-02 04:16:00,32.0,24.1,29.68,NNW,338,0.8,3.4,69,0.00,,,0.00,WSDL version 420,2013-03-02 09:16:00,
2013-03-02 04:22:00,32.0,24.0,29.68,NE,45,0.0,2.5,69,0.00,,,0.00,WSDL version 420,2013-03-02 09:22:00,
2013-03-02 04:28:00,32.0,24.3,29.68,NE,56,0.0,0.0,70,0.00,,,0.00,WSDL version 420,2013-03-02 09:28:00,
2013-03-02 04:34:00,32.0,24.1,29.68,ESE,113,0.0,0.0,69,0.00,,,0.00,WSDL version 420,2013-03-02 09:34:00,
2013-03-02 04:40:00,32.0,24.3,29.68,SE,146,0.8,2.5,70,0.00,,,0.00,WSDL version 420,2013-03-02 09:40:00,
2013-03-02 04:46:00,31.8,23.9,29.68,East,101,2.8,4.0,69,0.00,,,0.00,WSDL version 420,2013-03-02 09:46:00,
2013-03-02 04:52:00,31.8,23.8,29.68,SSW,203,1.1,4.0,69,0.00,,,0.00,WSDL version 420,2013-03-02 09:52:00,
2013-03-02 04:58:00,31.8,24.1,29.68,NW,308,0.4,2.2,70,0.00,,,0.00,WSDL version 420,2013-03-02 09:58:00,
2013-03-02 05:04:00,31.8,24.1,29.68,NNW,343,0.0,1.1,70,0.00,,,0.00,WSDL version 420,2013-03-02 10:04:00,
2013-03-02 05:13:00,31.7,24.0,29.68,South,180,0.0,0.0,70,0.00,,,0.00,WSDL version 420,2013-03-02 10:13:00,
2013-03-02 05:19:00,31.8,24.1,29.68,SSE,163,0.0,2.2,70,0.00,,,0.00,WSDL version 420,2013-03-02 10:19:00,
2013-03-02 05:25:00,31.6,23.8,29.68,South,180,0.0,2.2,69,0.00,,,0.00,WSDL version 420,2013-03-02 10:25:00,
2013-03-02 05:31:00,31.5,23.6,29.68,SE,135,1.8,2.9,69,0.00,,,0.00,WSDL version 420,2013-03-02 10:31:00,
2013-03-02 05:36:00,31.4,23.7,29.68,SSW,195,0.8,2.9,70,0.00,,,0.00,WSDL version 420,2013-03-02 10:36:00,
2013-03-02 05:43:00,31.3,23.8,29.68,ENE,68,0.7,4.3,71,0.00,,,0.00,WSDL version 420,2013-03-02 10:43:00,
2013-03-02 05:49:00,31.2,23.8,29.68,SSW,197,0.6,2.7,71,0.00,,,0.00,WSDL version 420,2013-03-02 10:49:00,
2013-03-02 05:55:00,31.1,23.8,29.68,SE,135,0.4,2.9,71,0.00,,,0.00,WSDL version 420,2013-03-02 10:55:00,
2013-03-02 06:01:00,31.1,23.8,29.68,SE,128,2.3,2.9,71,0.00,,,0.00,WSDL version 420,2013-03-02 11:01:00,
2013-03-02 06:07:00,30.9,23.7,29.68,SE,135,0.0,2.7,72,0.00,,,0.00,WSDL version 420,2013-03-02 11:07:00,
2013-03-02 06:13:00,30.7,23.8,29.68,WNW,298,0.0,0.0,73,0.00,,,0.00,WSDL version 420,2013-03-02 11:13:00,
2013-03-02 06:19:00,30.6,23.8,29.68,NW,315,0.0,0.0,73,0.00,,,0.00,WSDL version 420,2013-03-02 11:19:00,
2013-03-02 06:25:00,30.7,23.9,29.68,NW,315,0.0,0.0,73,0.00,,,0.00,WSDL version 420,2013-03-02 11:25:00,
2013-03-02 06:31:00,30.8,24.1,29.68,NE,45,0.0,0.0,73,0.00,,,0.00,WSDL version 420,2013-03-02 11:31:00,
2013-03-02 06:37:00,31.1,24.3,29.68,NE,45,0.3,1.6,73,0.00,,,0.00,WSDL version 420,2013-03-02 11:37:00,
2013-03-02 06:44:00,31.1,24.1,29.68,SSE,165,0.7,2.2,72,0.00,,,0.00,WSDL version 420,2013-03-02 11:44:00,
2013-03-02 06:50:00,31.1,24.0,29.68,North,8,1.0,2.5,72,0.00,,,0.00,WSDL version 420,2013-03-02 11:50:00,
2013-03-02 06:56:00,31.2,24.1,29.68,East,90,1.5,2.5,72,0.00,,,0.00,WSDL version 420,2013-03-02 11:56:00,
2013-03-02 07:02:00,31.1,23.8,29.68,SSE,150,1.8,2.7,71,0.00,,,0.00,WSDL version 420,2013-03-02 12:02:00,
2013-03-02 07:08:00,31.1,24.1,29.68,NE,45,0.0,2.7,73,0.00,,,0.00,WSDL version 420,2013-03-02 12:08:00,
2013-03-02 07:14:00,31.1,24.1,29.68,ENE,68,0.0,2.2,72,0.00,,,0.00,WSDL version 420,2013-03-02 12:14:00,
2013-03-02 07:20:00,31.2,23.8,29.68,NNW,338,0.0,2.7,71,0.00,,,0.00,WSDL version 420,2013-03-02 12:20:00,
2013-03-02 07:26:00,31.5,23.9,29.68,ENE,68,0.8,2.7,70,0.00,,,0.00,WSDL version 420,2013-03-02 12:26:00,
2013-03-02 07:32:00,31.8,24.1,29.68,West,278,0.0,2.5,69,0.00,,,0.00,WSDL version 420,2013-03-02 12:32:00,
2013-03-02 07:38:00,32.0,24.0,29.68,North,360,0.0,2.5,69,0.00,,,0.00,WSDL version 420,2013-03-02 12:38:00,
2013-03-02 07:44:00,32.0,24.0,29.68,SE,135,0.0,0.0,68,0.00,,,0.00,WSDL version 420,2013-03-02 12:44:00,
2013-03-02 07:50:00,32.1,23.2,29.68,NW,308,1.3,3.4,67,0.00,,,0.00,WSDL version 420,2013-03-02 12:50:00,
2013-03-02 07:56:00,32.2,22.8,29.68,East,83,0.4,3.4,68,0.00,,,0.00,WSDL version 420,2013-03-02 12:56:00,
2013-03-02 08:02:00,32.4,23.0,29.68,SE,135,0.0,2.2,68,0.00,,,0.00,WSDL version 420,2013-03-02 13:02:00,
2013-03-02 08:08:00,32.4,23.1,29.68,ESE,120,0.0,2.0,68,0.00,,,0.00,WSDL version 420,2013-03-02 13:08:00,
2013-03-02 08:14:00,32.5,23.0,29.68,East,79,1.3,2.0,68,0.00,,,0.00,WSDL version 420,2013-03-02 13:14:00,
2013-03-02 08:20:00,32.5,23.4,29.68,NW,308,0.0,3.1,68,0.00,,,0.00,WSDL version 420,2013-03-02 13:20:00,
2013-03-02 08:26:00,32.5,23.2,29.68,WNW,285,0.0,2.2,67,0.00,,,0.00,WSDL version 420,2013-03-02 13:26:00,
2013-03-02 08:32:00,32.7,22.9,29.68,North,353,0.9,2.2,67,0.00,,,0.00,WSDL version 420,2013-03-02 13:32:00,
2013-03-02 08:38:00,32.9,23.1,29.68,North,353,1.5,2.2,66,0.00,,,0.00,WSDL version 420,2013-03-02 13:38:00,
2013-03-02 08:44:00,33.0,22.9,29.68,SSE,150,0.9,2.5,66,0.00,,,0.00,WSDL version 420,2013-03-02 13:44:00,
2013-03-02 08:50:00,33.2,22.5,29.68,NNW,332,2.0,4.9,64,0.00,,,0.00,WSDL version 420,2013-03-02 13:50:00,
2013-03-02 08:56:00,33.4,22.5,29.68,NW,315,0.0,4.9,64,0.00,,,0.00,WSDL version 420,2013-03-02 13:56:00,
2013-03-02 09:02:00,33.7,22.6,29.68,ESE,120,2.5,3.8,63,0.00,,,0.00,WSDL version 420,2013-03-02 14:02:00,
2013-03-02 09:08:00,33.9,22.3,29.68,SW,225,2.0,4.3,60,0.00,,,0.00,WSDL version 420,2013-03-02 14:08:00,
2013-03-02 09:14:00,33.7,21.7,29.68,NNE,23,1.3,4.3,61,0.00,,,0.00,WSDL version 420,2013-03-02 14:14:00,
2013-03-02 09:21:00,33.9,22.1,29.68,North,360,0.0,4.0,62,0.00,,,0.00,WSDL version 420,2013-03-02 14:21:00,
2013-03-02 09:27:00,34.0,22.3,29.68,ENE,68,2.1,4.3,62,0.00,,,0.00,WSDL version 420,2013-03-02 14:27:00,
2013-03-02 09:33:00,34.1,22.0,29.68,NE,39,2.8,4.3,61,0.00,,,0.00,WSDL version 420,2013-03-02 14:33:00,
2013-03-02 09:39:00,34.3,22.1,29.68,East,90,1.3,3.1,61,0.00,,,0.00,WSDL version 420,2013-03-02 14:39:00,
2013-03-02 09:45:00,34.6,22.5,29.68,East,90,0.0,3.6,61,0.00,,,0.00,WSDL version 420,2013-03-02 14:45:00,
2013-03-02 09:51:00,34.9,22.7,29.68,South,180,1.1,3.6,60,0.00,,,0.00,WSDL version 420,2013-03-02 14:51:00,
2013-03-02 09:57:00,35.2,23.4,29.68,ESE,105,3.1,3.1,61,0.00,,,0.00,WSDL version 420,2013-03-02 14:57:00,
2013-03-02 10:03:00,35.3,22.8,29.68,SE,129,2.4,6.3,60,0.00,,,0.00,WSDL version 420,2013-03-02 15:03:00,
2013-03-02 10:09:00,35.4,23.3,29.68,North,349,3.0,4.9,61,0.00,,,0.00,WSDL version 420,2013-03-02 15:09:00,
2013-03-02 10:15:00,35.0,22.0,29.68,North,349,2.1,4.9,58,0.00,,,0.00,WSDL version 420,2013-03-02 15:15:00,
2013-03-02 10:21:00,34.9,21.9,29.68,NE,45,4.0,4.0,59,0.00,,,0.00,WSDL version 420,2013-03-02 15:21:00,
2013-03-02 10:27:00,35.1,21.9,29.68,East,90,2.9,4.0,58,0.00,,,0.00,WSDL version 420,2013-03-02 15:27:00,
2013-03-02 10:33:00,35.7,22.1,29.68,NE,45,4.0,4.0,57,0.00,,,0.00,WSDL version 420,2013-03-02 15:33:00,
2013-03-02 10:39:00,36.3,22.4,29.68,NE,53,3.1,4.9,56,0.00,,,0.00,WSDL version 420,2013-03-02 15:39:00,
2013-03-02 10:45:00,36.0,21.9,29.68,East,90,3.6,4.9,56,0.00,,,0.00,WSDL version 420,2013-03-02 15:45:00,
2013-03-02 10:51:00,36.1,22.0,29.68,South,169,1.0,6.0,55,0.00,,,0.00,WSDL version 420,2013-03-02 15:51:00,
2013-03-02 10:57:00,36.1,21.7,29.68,South,180,2.8,4.0,55,0.00,,,0.00,WSDL version 420,2013-03-02 15:57:00,
2013-03-02 11:03:00,35.7,21.6,29.68,NE,56,2.8,3.6,56,0.00,,,0.00,WSDL version 420,2013-03-02 16:03:00,
2013-03-02 11:09:00,35.8,21.8,29.68,North,360,3.9,4.7,57,0.00,,,0.00,WSDL version 420,2013-03-02 16:09:00,
2013-03-02 11:15:00,36.0,22.1,29.68,NNE,30,2.4,4.7,56,0.00,,,0.00,WSDL version 420,2013-03-02 16:15:00,
2013-03-02 11:21:00,36.2,22.0,29.68,NE,38,1.0,2.7,56,0.00,,,0.00,WSDL version 420,2013-03-02 16:21:00,
2013-03-02 11:27:00,36.8,23.4,29.65,ENE,68,3.1,4.0,58,0.00,,,0.00,WSDL version 420,2013-03-02 16:27:00,
2013-03-02 11:33:00,36.9,22.6,29.65,ENE,75,2.4,4.0,56,0.00,,,0.00,WSDL version 420,2013-03-02 16:33:00,
2013-03-02 11:39:00,37.6,23.1,29.65,SSW,195,1.4,3.6,56,0.00,,,0.00,WSDL version 420,2013-03-02 16:39:00,
2013-03-02 11:46:00,38.2,23.4,29.65,North,360,2.5,3.1,54,0.00,,,0.00,WSDL version 420,2013-03-02 16:46:00,
2013-03-02 11:52:00,38.3,23.4,29.65,ENE,75,2.6,3.4,53,0.00,,,0.00,WSDL version 420,2013-03-02 16:52:00,
2013-03-02 11:58:00,37.6,22.0,29.65,North,354,4.0,5.8,53,0.00,,,0.00,WSDL version 420,2013-03-02 16:58:00,
2013-03-02 12:04:00,38.1,22.6,29.65,SE,146,3.4,5.8,52,0.00,,,0.00,WSDL version 420,2013-03-02 17:04:00,
2013-03-02 12:10:00,38.0,22.4,29.65,West,270,3.4,4.9,53,-99.99,,,-99.99,WSDL version 420,2013-03-02 17:10:00,
2013-03-02 12:16:00,38.1,22.8,29.65,ESE,105,4.3,4.9,53,0.00,,,0.00,WSDL version 420,2013-03-02 17:16:00,
2013-03-02 12:22:00,38.1,22.8,29.65,North,8,3.3,4.3,54,0.00,,,0.00,WSDL version 420,2013-03-02 17:22:00,
2013-03-02 12:28:00,37.9,22.4,29.65,West,259,1.8,4.0,54,0.00,,,0.00,WSDL version 420,2013-03-02 17:28:00,
2013-03-02 12:34:00,37.8,22.2,29.65,NE,45,5.8,5.8,53,0.00,,,0.00,WSDL version 420,2013-03-02 17:34:00,
2013-03-02 12:40:00,37.3,21.9,29.65,NE,45,5.8,5.8,53,0.00,,,0.00,WSDL version 420,2013-03-02 17:40:00,
2013-03-02 12:57:00,37.6,22.2,29.62,ENE,68,0.0,0.0,54,0.00,,,0.00,WSDL version 420,2013-03-02 17:57:00,
2013-03-02 13:03:00,37.6,22.2,29.62,ENE,68,0.0,0.0,53,0.00,,,0.00,WSDL version 420,2013-03-02 18:03:00,
2013-03-02 13:09:00,37.5,22.2,29.62,ENE,68,0.0,0.0,53,0.00,,,0.00,WSDL version 420,2013-03-02 18:09:00,
2013-03-02 13:15:00,37.5,22.1,29.62,North,-999,-999.0,-999.0,53,0.00,,,0.00,WSDL version 420,2013-03-02 18:15:00,
2013-03-02 13:21:00,37.2,22.1,29.62,North,-999,-999.0,-999.0,54,0.00,,,0.00,WSDL version 420,2013-03-02 18:21:00,
2013-03-02 13:27:00,36.9,21.7,29.62,North,-999,-999.0,-999.0,54,0.00,,,0.00,WSDL version 420,2013-03-02 18:27:00,
2013-03-02 13:33:00,36.8,21.7,29.62,North,-999,-999.0,-999.0,54,0.00,,,0.00,WSDL version 420,2013-03-02 18:33:00,
2013-03-02 13:39:00,36.8,21.9,29.65,North,-999,-999.0,-999.0,55,0.00,,,0.00,WSDL version 420,2013-03-02 18:39:00,
2013-03-02 13:45:00,36.5,21.3,29.65,North,-999,-999.0,-999.0,54,0.00,,,0.00,WSDL version 420,2013-03-02 18:45:00,
2013-03-02 13:51:00,36.5,21.7,29.65,North,-999,-999.0,-999.0,56,0.00,,,0.00,WSDL version 420,2013-03-02 18:51:00,
2013-03-02 13:57:00,36.7,22.0,29.62,North,-999,-999.0,-999.0,55,0.00,,,0.00,WSDL version 420,2013-03-02 18:57:00,
2013-03-02 14:04:00,36.8,21.9,29.62,North,-999,-999.0,-999.0,55,0.00,,,0.00,WSDL version 420,2013-03-02 19:04:00,
2013-03-02 14:10:00,37.0,22.3,29.62,North,-999,-999.0,-999.0,55,0.00,,,0.00,WSDL version 420,2013-03-02 19:10:00,
2013-03-02 14:16:00,37.0,22.4,29.62,North,-999,-999.0,-999.0,55,0.00,,,0.00,WSDL version 420,2013-03-02 19:16:00,
2013-03-02 14:22:00,37.0,22.2,29.62,North,-999,-999.0,-999.0,55,0.00,,,0.00,WSDL version 420,2013-03-02 19:22:00,
2013-03-02 14:28:00,37.0,21.9,29.62,North,-999,-999.0,-999.0,54,0.00,,,0.00,WSDL version 420,2013-03-02 19:28:00,
2013-03-02 14:34:00,37.0,21.9,29.62,North,-999,-999.0,-999.0,54,0.00,,,0.00,WSDL version 420,2013-03-02 19:34:00,
2013-03-02 14:40:00,37.0,21.6,29.62,North,-999,-999.0,-999.0,53,0.00,,,0.00,WSDL version 420,2013-03-02 19:40:00,
2013-03-02 14:46:00,37.0,22.1,29.62,North,-999,-999.0,-999.0,54,0.00,,,0.00,WSDL version 420,2013-03-02 19:46:00,
2013-03-02 14:52:00,37.0,21.9,29.62,North,-999,-999.0,-999.0,54,0.00,,,0.00,WSDL version 420,2013-03-02 19:52:00,
2013-03-02 14:58:00,37.1,22.0,29.62,North,-999,-999.0,-999.0,53,0.00,,,0.00,WSDL version 420,2013-03-02 19:58:00,
2013-03-02 15:04:00,37.3,22.0,29.62,North,-999,-999.0,-999.0,53,0.00,,,0.00,WSDL version 420,2013-03-02 20:04:00,
2013-03-02 15:10:00,37.5,21.9,29.62,North,-999,-999.0,-999.0,53,0.00,,,0.00,WSDL version 420,2013-03-02 20:10:00,
2013-03-02 15:16:00,37.2,21.9,29.62,North,-999,-999.0,-999.0,53,0.00,,,0.00,WSDL version 420,2013-03-02 20:16:00,
2013-03-02 15:22:00,36.9,21.6,29.62,North,-999,-999.0,-999.0,53,0.00,,,0.00,WSDL version 420,2013-03-02 20:22:00,
2013-03-02 15:28:00,36.8,21.6,29.62,North,-999,-999.0,-999.0,54,0.00,,,0.00,WSDL version 420,2013-03-02 20:28:00,
2013-03-02 15:34:00,36.9,21.6,29.62,North,-999,-999.0,-999.0,55,0.00,,,0.00,WSDL version 420,2013-03-02 20:34:00,
2013-03-02 15:40:00,36.8,21.6,29.62,North,-999,-999.0,-999.0,54,0.00,,,0.00,WSDL version 420,2013-03-02 20:40:00,
2013-03-02 15:46:00,36.7,21.2,29.62,North,-999,-999.0,-999.0,53,0.00,,,0.00,WSDL version 420,2013-03-02 20:46:00,
2013-03-02 15:52:00,36.4,20.5,29.62,North,-999,-999.0,-999.0,52,0.00,,,0.00,WSDL version 420,2013-03-02 20:52:00,
2013-03-02 15:58:00,36.4,21.0,29.62,North,-999,-999.0,-999.0,53,0.00,,,0.00,WSDL version 420,2013-03-02 20:58:00,
2013-03-02 16:05:00,36.2,20.7,29.62,North,-999,-999.0,-999.0,53,0.00,,,0.00,WSDL version 420,2013-03-02 21:05:00,
2013-03-02 16:11:00,36.1,20.7,29.62,North,-999,-999.0,-999.0,53,0.00,,,0.00,WSDL version 420,2013-03-02 21:11:00,
2013-03-02 16:17:00,36.1,21.0,29.62,North,-999,-999.0,-999.0,54,0.00,,,0.00,WSDL version 420,2013-03-02 21:17:00,
2013-03-02 16:23:00,36.1,21.1,29.62,North,-999,-999.0,-999.0,54,0.00,,,0.00,WSDL version 420,2013-03-02 21:23:00,
2013-03-02 16:29:00,36.0,20.8,29.62,North,-999,-999.0,-999.0,54,0.00,,,0.00,WSDL version 420,2013-03-02 21:29:00,
2013-03-02 16:35:00,35.8,20.8,29.62,East,90,0.0,0.0,54,0.00,,,0.00,WSDL version 420,2013-03-02 21:35:00,
2013-03-02 16:41:00,35.7,20.7,29.62,East,90,0.0,0.0,54,0.00,,,0.00,WSDL version 420,2013-03-02 21:41:00,
2013-03-02 16:47:00,35.5,20.5,29.62,North,-999,-999.0,-999.0,54,0.00,,,0.00,WSDL version 420,2013-03-02 21:47:00,
2013-03-02 16:53:00,35.4,20.9,29.62,North,-999,-999.0,-999.0,55,0.00,,,0.00,WSDL version 420,2013-03-02 21:53:00,
2013-03-02 16:59:00,35.4,20.5,29.62,North,-999,-999.0,-999.0,54,0.00,,,0.00,WSDL version 420,2013-03-02 21:59:00,
2013-03-02 17:05:00,35.2,20.5,29.62,North,-999,-999.0,-999.0,55,0.00,,,0.00,WSDL version 420,2013-03-02 22:05:00,
2013-03-02 17:11:00,35.1,20.4,29.62,North,-999,-999.0,-999.0,55,0.00,,,0.00,WSDL version 420,2013-03-02 22:11:00,
2013-03-02 17:17:00,34.8,20.1,29.62,North,-999,-999.0,-999.0,55,0.00,,,0.00,WSDL version 420,2013-03-02 22:17:00,
2013-03-02 17:23:00,34.7,20.2,29.62,North,-999,-999.0,-999.0,55,0.00,,,0.00,WSDL version 420,2013-03-02 22:23:00,
2013-03-02 17:29:00,34.5,20.2,29.62,North,-999,-999.0,-999.0,55,0.00,,,0.00,WSDL version 420,2013-03-02 22:29:00,
2013-03-02 17:35:00,34.4,20.2,29.62,North,-999,-999.0,-999.0,56,0.00,,,0.00,WSDL version 420,2013-03-02 22:35:00,
2013-03-02 17:41:00,34.3,20.3,29.65,North,-999,-999.0,-999.0,56,0.00,,,0.00,WSDL version 420,2013-03-02 22:41:00,
2013-03-02 17:47:00,34.2,20.2,29.65,North,-999,-999.0,-999.0,56,0.00,,,0.00,WSDL version 420,2013-03-02 22:47:00,
2013-03-02 17:54:00,34.1,20.1,29.65,North,-999,-999.0,-999.0,56,0.00,,,0.00,WSDL version 420,2013-03-02 22:54:00,
2013-03-02 18:00:00,34.0,19.9,29.65,North,-999,-999.0,-999.0,56,0.00,,,0.00,WSDL version 420,2013-03-02 23:00:00,
2013-03-02 18:06:00,34.0,20.2,29.65,North,-999,-999.0,-999.0,57,0.00,,,0.00,WSDL version 420,2013-03-02 23:06:00,
2013-03-02 18:12:00,33.9,20.2,29.65,North,-999,-999.0,-999.0,57,0.00,,,0.00,WSDL version 420,2013-03-02 23:12:00,
2013-03-02 18:18:00,33.8,20.2,29.65,North,-999,-999.0,-999.0,57,0.00,,,0.00,WSDL version 420,2013-03-02 23:18:00,
2013-03-02 18:24:00,33.8,20.5,29.65,North,-999,-999.0,-999.0,58,0.00,,,0.00,WSDL version 420,2013-03-02 23:24:00,
2013-03-02 18:30:00,33.6,20.4,29.65,North,-999,-999.0,-999.0,58,0.00,,,0.00,WSDL version 420,2013-03-02 23:30:00,
2013-03-02 18:36:00,33.6,20.6,29.65,North,-999,-999.0,-999.0,59,0.00,,,0.00,WSDL version 420,2013-03-02 23:36:00,
2013-03-02 18:42:00,33.6,20.8,29.65,North,-999,-999.0,-999.0,59,0.00,,,0.00,WSDL version 420,2013-03-02 23:42:00,
2013-03-02 18:48:00,33.4,20.7,29.65,North,-999,-999.0,-999.0,59,0.00,,,0.00,WSDL version 420,2013-03-02 23:48:00,
2013-03-02 18:54:00,33.4,20.6,29.68,North,-999,-999.0,-999.0,59,0.00,,,0.00,WSDL version 420,2013-03-02 23:54:00,
2013-03-02 19:00:00,33.3,20.6,29.68,North,-999,-999.0,-999.0,60,0.00,,,0.00,WSDL version 420,2013-03-03 00:00:00,
2013-03-02 19:13:00,33.1,21.1,29.65,North,-999,-999.0,-999.0,61,0.00,,,0.00,WSDL version 420,2013-03-03 00:13:00,
2013-03-02 19:28:00,32.8,21.2,29.68,North,-999,-999.0,-999.0,62,0.00,,,0.00,WSDL version 420,2013-03-03 00:28:00,
2013-03-02 19:34:00,32.7,21.4,29.68,North,-999,-999.0,-999.0,63,0.00,,,0.00,WSDL version 420,2013-03-03 00:34:00,
2013-03-02 19:40:00,32.7,21.5,29.68,North,-999,-999.0,-999.0,63,0.00,,,0.00,WSDL version 420,2013-03-03 00:40:00,
2013-03-02 19:46:00,32.5,21.7,29.68,North,-999,-999.0,-999.0,64,0.00,,,0.00,WSDL version 420,2013-03-03 00:46:00,
2013-03-02 19:52:00,32.5,21.9,29.68,North,-999,-999.0,-999.0,65,0.00,,,0.00,WSDL version 420,2013-03-03 00:52:00,
2013-03-02 19:58:00,32.5,22.2,29.68,North,-999,-999.0,-999.0,66,-99.99,,,-99.99,WSDL version 420,2013-03-03 00:58:00,
2013-03-02 20:04:00,32.3,22.6,29.68,North,-999,-999.0,-999.0,67,0.00,,,0.00,WSDL version 420,2013-03-03 01:04:00,
2013-03-02 20:10:00,32.2,22.8,29.68,North,-999,-999.0,-999.0,68,0.00,,,0.00,WSDL version 420,2013-03-03 01:10:00,
2013-03-02 20:16:00,32.1,23.4,29.68,North,-999,-999.0,-999.0,68,0.00,,,0.00,WSDL version 420,2013-03-03 01:16:00,
2013-03-02 20:22:00,32.0,23.9,29.68,North,-999,-999.0,-999.0,69,0.00,,,0.00,WSDL version 420,2013-03-03 01:22:00,
2013-03-02 20:28:00,31.8,23.7,29.68,North,-999,-999.0,-999.0,69,0.00,,,0.00,WSDL version 420,2013-03-03 01:28:00,
2013-03-02 20:34:00,31.7,23.7,29.68,North,-999,-999.0,-999.0,69,0.00,,,0.00,WSDL version 420,2013-03-03 01:34:00,
2013-03-02 20:40:00,31.6,23.8,29.68,North,-999,-999.0,-999.0,70,0.00,,,0.00,WSDL version 420,2013-03-03 01:40:00,
2013-03-02 20:46:00,31.6,23.6,29.68,North,-999,-999.0,-999.0,69,0.00,,,0.00,WSDL version 420,2013-03-03 01:46:00,
2013-03-02 20:52:00,31.5,23.4,29.68,North,-999,-999.0,-999.0,69,0.00,,,0.00,WSDL version 420,2013-03-03 01:52:00,
2013-03-02 20:58:00,31.3,23.3,29.68,North,-999,-999.0,-999.0,69,0.00,,,0.00,WSDL version 420,2013-03-03 01:58:00,
2013-03-02 21:04:00,31.2,23.1,29.68,North,-999,-999.0,-999.0,69,0.00,,,0.00,WSDL version 420,2013-03-03 02:04:00,
2013-03-02 21:10:00,30.9,22.7,29.68,North,-999,-999.0,-999.0,68,0.00,,,0.00,WSDL version 420,2013-03-03 02:10:00,
2013-03-02 21:17:00,30.6,22.7,29.68,North,-999,-999.0,-999.0,69,0.00,,,0.00,WSDL version 420,2013-03-03 02:17:00,
2013-03-02 21:23:00,30.3,22.7,29.68,North,-999,-999.0,-999.0,70,0.00,,,0.00,WSDL version 420,2013-03-03 02:23:00,
2013-03-02 21:29:00,30.2,23.1,29.68,North,-999,-999.0,-999.0,72,0.00,,,0.00,WSDL version 420,2013-03-03 02:29:00,
2013-03-02 21:35:00,30.2,23.2,29.68,North,-999,-999.0,-999.0,72,0.00,,,0.00,WSDL version 420,2013-03-03 02:35:00,
2013-03-02 21:41:00,30.0,23.3,29.68,North,-999,-999.0,-999.0,73,0.00,,,0.00,WSDL version 420,2013-03-03 02:41:00,
2013-03-02 21:47:00,29.8,23.1,29.68,North,-999,-999.0,-999.0,73,0.00,,,0.00,WSDL version 420,2013-03-03 02:47:00,
2013-03-02 21:53:00,29.8,23.3,29.68,North,-999,-999.0,-999.0,74,0.00,,,0.00,WSDL version 420,2013-03-03 02:53:00,
2013-03-02 21:59:00,29.6,23.2,29.68,North,-999,-999.0,-999.0,74,0.00,,,0.00,WSDL version 420,2013-03-03 02:59:00,
2013-03-02 22:05:00,29.5,23.2,29.68,North,-999,-999.0,-999.0,75,0.00,,,0.00,WSDL version 420,2013-03-03 03:05:00,
2013-03-02 22:11:00,29.4,23.4,29.68,North,-999,-999.0,-999.0,76,0.00,,,0.00,WSDL version 420,2013-03-03 03:11:00,
2013-03-02 22:17:00,29.3,23.4,29.68,North,-999,-999.0,-999.0,76,0.00,,,0.00,WSDL version 420,2013-03-03 03:17:00,
2013-03-02 22:23:00,29.0,23.0,29.68,North,-999,-999.0,-999.0,76,0.00,,,0.00,WSDL version 420,2013-03-03 03:23:00,
2013-03-02 22:29:00,29.0,22.9,29.68,North,-999,-999.0,-999.0,75,0.00,,,0.00,WSDL version 420,2013-03-03 03:29:00,
2013-03-02 22:35:00,28.9,23.1,29.68,North,-999,-999.0,-999.0,76,0.00,,,0.00,WSDL version 420,2013-03-03 03:35:00,
2013-03-02 22:41:00,28.7,22.7,29.68,North,-999,-999.0,-999.0,75,0.00,,,0.00,WSDL version 420,2013-03-03 03:41:00,
2013-03-02 22:47:00,28.6,22.5,29.68,East,101,3.0,4.0,75,0.00,,,0.00,WSDL version 420,2013-03-03 03:47:00,
2013-03-02 22:53:00,28.6,22.5,29.68,NE,45,2.3,4.0,75,0.00,,,0.00,WSDL version 420,2013-03-03 03:53:00,
2013-03-02 22:59:00,28.6,22.5,29.68,ENE,68,6.7,6.7,75,0.00,,,0.00,WSDL version 420,2013-03-03 03:59:00,
2013-03-02 23:05:00,28.4,22.4,29.68,ESE,113,2.2,6.7,75,0.00,,,0.00,WSDL version 420,2013-03-03 04:05:00,
2013-03-02 23:12:00,28.4,22.6,29.68,North,6,2.3,3.6,76,0.00,,,0.00,WSDL version 420,2013-03-03 04:12:00,
2013-03-02 23:18:00,28.3,22.4,29.68,NE,45,5.6,5.6,76,0.00,,,0.00,WSDL version 420,2013-03-03 04:18:00,
2013-03-02 23:24:00,28.2,22.2,29.65,NNE,30,0.0,5.6,75,0.00,,,0.00,WSDL version 420,2013-03-03 04:24:00,
2013-03-02 23:30:00,28.2,22.4,29.65,North,360,1.9,3.1,76,0.00,,,0.00,WSDL version 420,2013-03-03 04:30:00,
2013-03-02 23:36:00,28.2,22.5,29.65,NNW,345,2.9,3.1,77,0.00,,,0.00,WSDL version 420,2013-03-03 04:36:00,
2013-03-02 23:42:00,28.0,22.3,29.65,NNE,15,0.4,3.1,76,0.00,,,0.00,WSDL version 420,2013-03-03 04:42:00,
2013-03-02 23:48:00,28.0,22.4,29.65,ENE,60,2.5,3.1,77,0.00,,,0.00,WSDL version 420,2013-03-03 04:48:00,
2013-03-02 23:54:00,28.0,22.5,29.65,NNW,338,2.1,3.1,77,0.00,,,0.00,WSDL version 420,2013-03-03 04:54:00,